• In Hungary
  • List of Countries
  • For 7 days
  • Water Temperature
  • Satellite Maps
  • Weather Map
  • News
  • Weather Widgets
  • user-avatar
    Login

    Hourly Weather Sangrave

    Today, 21 September, Friday

    Time Temperature Precipitation Wind Pressure Humidity
    00:00 +41°C° 0 mm 8 mps 748 mmHg 22%
    01:00 +41°C° 0 mm 8 mps 748 mmHg 23%
    02:00 +40°C° 0 mm 9 mps 747 mmHg 24%
    03:00 +40°C° 0 mm 9 mps 747 mmHg 25%
    04:00 +39°C° 0 mm 8 mps 747 mmHg 26%
    05:00 +38°C° 0 mm 8 mps 748 mmHg 28%
    06:00 +39°C° 0 mm 9 mps 748 mmHg 27%
    07:00 +40°C° 0 mm 9 mps 749 mmHg 26%
    08:00 +40°C° 0 mm 10 mps 749 mmHg 25%
    09:00 +43°C° 0 mm 9 mps 749 mmHg 22%
    10:00 +45°C° 0 mm 9 mps 749 mmHg 19%
    11:00 +46°C° 0 mm 8 mps 748 mmHg 17%
    12:00 +46°C° 0 mm 7 mps 748 mmHg 16%
    13:00 +47°C° 0 mm 6 mps 747 mmHg 15%
    14:00 +47°C° 0 mm 5 mps 747 mmHg 14%
    15:00 +47°C° 0 mm 5 mps 747 mmHg 14%
    16:00 +45°C° 0 mm 4 mps 747 mmHg 14%
    17:00 +45°C° 0 mm 3 mps 746 mmHg 14%
    18:00 +44°C° 0 mm 3 mps 747 mmHg 15%
    19:00 +44°C° 0 mm 3 mps 747 mmHg 16%
    20:00 +43°C° 0 mm 3 mps 747 mmHg 16%
    21:00 +43°C° 0 mm 3 mps 748 mmHg 17%
    22:00 +43°C° 0 mm 4 mps 748 mmHg 18%
    23:00 +42°C° 0 mm 4 mps 748 mmHg 18%

    Tomorrow, 22 September, Saturday

    Time Temperature Precipitation Wind Pressure Humidity
    00:00 +42°C° 0 mm 4 mps 748 mmHg 20%
    01:00 +41°C° 0 mm 4 mps 747 mmHg 21%
    02:00 +41°C° 0 mm 5 mps 747 mmHg 23%
    03:00 +40°C° 0 mm 5 mps 747 mmHg 26%
    04:00 +39°C° 0 mm 5 mps 748 mmHg 30%
    05:00 +38°C° 0 mm 4 mps 748 mmHg 33%
    06:00 +38°C° 0 mm 4 mps 749 mmHg 34%
    07:00 +38°C° 0 mm 4 mps 749 mmHg 35%
    08:00 +38°C° 0 mm 3 mps 750 mmHg 36%
    09:00 +40°C° 0 mm 4 mps 750 mmHg 35%
    10:00 +41°C° 0 mm 5 mps 749 mmHg 34%
    11:00 +42°C° 0 mm 6 mps 749 mmHg 33%
    12:00 +42°C° 0 mm 5 mps 749 mmHg 32%
    13:00 +42°C° 0 mm 4 mps 748 mmHg 30%
    14:00 +43°C° 0 mm 3 mps 748 mmHg 29%
    15:00 +42°C° 0 mm 2 mps 747 mmHg 28%
    16:00 +42°C° 0 mm 2 mps 747 mmHg 27%
    17:00 +42°C° 0 mm 1 mps 747 mmHg 26%
    18:00 +42°C° 0 mm 2 mps 748 mmHg 27%
    19:00 +41°C° 0 mm 2 mps 748 mmHg 28%
    20:00 +42°C° 0 mm 3 mps 749 mmHg 29%
    21:00 +42°C° 0.1 mm 3 mps 749 mmHg 30%
    22:00 +41°C° 0.1 mm 4 mps 749 mmHg 31%
    23:00 +40°C° 0.1 mm 4 mps 749 mmHg 33%

    Day after tomorrow, 23 September, Sunday

    Time Temperature Precipitation Wind Pressure Humidity
    00:00 +40°C° 0.3 mm 5 mps 749 mmHg 35%
    01:00 +39°C° 0.3 mm 5 mps 749 mmHg 37%
    02:00 +38°C° 0.3 mm 6 mps 748 mmHg 39%
    03:00 +38°C° 0 mm 6 mps 748 mmHg 41%
    04:00 +36°C° 0 mm 6 mps 748 mmHg 42%
    05:00 +36°C° 0 mm 6 mps 748 mmHg 44%
    06:00 +36°C° 0 mm 5 mps 749 mmHg 42%
    07:00 +36°C° 0 mm 5 mps 749 mmHg 40%
    08:00 +37°C° 0 mm 5 mps 750 mmHg 38%
    09:00 +38°C° 0 mm 4 mps 750 mmHg 33%
    10:00 +40°C° 0 mm 3 mps 750 mmHg 28%
    11:00 +42°C° 0 mm 3 mps 750 mmHg 23%
    12:00 +42°C° 0 mm 2 mps 749 mmHg 22%
    13:00 +43°C° 0 mm 2 mps 748 mmHg 20%
    14:00 +45°C° 0 mm 2 mps 747 mmHg 18%
    15:00 +45°C° 0 mm 3 mps 747 mmHg 18%
    16:00 +44°C° 0 mm 3 mps 747 mmHg 17%
    17:00 +44°C° 0 mm 4 mps 747 mmHg 17%
    18:00 +44°C° 0.1 mm 3 mps 747 mmHg 18%
    19:00 +43°C° 0.1 mm 3 mps 748 mmHg 19%
    20:00 +43°C° 0.1 mm 3 mps 748 mmHg 19%
    21:00 +42°C° 0 mm 3 mps 749 mmHg 20%
    22:00 +41°C° 0 mm 2 mps 749 mmHg 21%
    23:00 +41°C° 0 mm 2 mps 749 mmHg 22%

    24 September, Monday

    Time Temperature Precipitation Wind Pressure Humidity
    00:00 +40°C° 0 mm 3 mps 748 mmHg 24%
    01:00 +40°C° 0 mm 4 mps 748 mmHg 25%
    02:00 +40°C° 0 mm 4 mps 748 mmHg 27%
    03:00 +38°C° 0 mm 4 mps 748 mmHg 28%
    04:00 +37°C° 0 mm 4 mps 748 mmHg 29%
    05:00 +37°C° 0 mm 4 mps 748 mmHg 30%
    06:00 +37°C° 0 mm 4 mps 748 mmHg 29%
    07:00 +38°C° 0 mm 4 mps 749 mmHg 27%
    08:00 +38°C° 0 mm 3 mps 749 mmHg 25%
    09:00 +40°C° 0 mm 3 mps 749 mmHg 22%
    10:00 +42°C° 0 mm 3 mps 749 mmHg 19%
    11:00 +44°C° 0 mm 3 mps 749 mmHg 15%
    12:00 +45°C° 0 mm 3 mps 748 mmHg 15%
    13:00 +45°C° 0 mm 3 mps 747 mmHg 14%
    14:00 +46°C° 0 mm 2 mps 746 mmHg 13%
    15:00 +46°C° 0 mm 2 mps 746 mmHg 13%
    16:00 +45°C° 0 mm 1 mps 746 mmHg 13%
    17:00 +45°C° 0 mm 1 mps 746 mmHg 13%
    18:00 +45°C° 0 mm 1 mps 747 mmHg 14%
    19:00 +45°C° 0 mm 2 mps 747 mmHg 14%
    20:00 +45°C° 0 mm 2 mps 748 mmHg 15%
    21:00 +43°C° 0 mm 4 mps 748 mmHg 20%
    22:00 +42°C° 0 mm 5 mps 748 mmHg 25%
    23:00 +41°C° 0 mm 7 mps 749 mmHg 29%

    25 September, Tuesday

    Time Temperature Precipitation Wind Pressure Humidity
    00:00 +40°C° 0 mm 7 mps 748 mmHg 32%
    01:00 +39°C° 0 mm 7 mps 748 mmHg 35%
    02:00 +38°C° 0 mm 6 mps 748 mmHg 39%
    03:00 +38°C° 0 mm 7 mps 748 mmHg 40%
    04:00 +36°C° 0 mm 7 mps 748 mmHg 41%
    05:00 +36°C° 0 mm 7 mps 748 mmHg 43%
    06:00 +36°C° 0 mm 7 mps 749 mmHg 41%
    07:00 +36°C° 0 mm 6 mps 749 mmHg 40%
    08:00 +36°C° 0 mm 6 mps 750 mmHg 39%
    09:00 +37°C° 0 mm 5 mps 750 mmHg 35%
    10:00 +38°C° 0 mm 4 mps 750 mmHg 32%
    11:00 +40°C° 0 mm 4 mps 750 mmHg 28%
    12:00 +39°C° 0 mm 3 mps 749 mmHg 27%
    13:00 +40°C° 0 mm 3 mps 749 mmHg 26%
    14:00 +40°C° 0 mm 2 mps 748 mmHg 25%
    15:00 +40°C° 0 mm 2 mps 748 mmHg 24%
    16:00 +40°C° 0 mm 2 mps 748 mmHg 24%
    17:00 +40°C° 0 mm 2 mps 748 mmHg 24%
    18:00 +40°C° 0 mm 2 mps 749 mmHg 24%
    19:00 +40°C° 0 mm 2 mps 749 mmHg 25%
    20:00 +39°C° 0 mm 2 mps 750 mmHg 25%
    21:00 +39°C° 0 mm 2 mps 750 mmHg 25%
    22:00 +39°C° 0 mm 2 mps 750 mmHg 26%
    23:00 +38°C° 0 mm 3 mps 750 mmHg 26%

    26 September, Wednesday

    Time Temperature Precipitation Wind Pressure Humidity
    00:00 +38°C° 0 mm 3 mps 750 mmHg 27%
    01:00 +37°C° 0 mm 3 mps 749 mmHg 28%
    02:00 +37°C° 0 mm 4 mps 749 mmHg 29%
    03:00 +36°C° 0.4 mm 4 mps 749 mmHg 33%
    04:00 +35°C° 0.4 mm 3 mps 750 mmHg 37%
    05:00 +34°C° 0.4 mm 3 mps 750 mmHg 41%
    06:00 +34°C° 0.2 mm 3 mps 750 mmHg 40%
    07:00 +35°C° 0.2 mm 3 mps 751 mmHg 39%
    08:00 +35°C° 0.2 mm 3 mps 751 mmHg 38%
    09:00 +37°C° 0 mm 3 mps 751 mmHg 35%
    10:00 +38°C° 0 mm 4 mps 751 mmHg 31%
    11:00 +40°C° 0 mm 4 mps 750 mmHg 28%
    12:00 +41°C° 0 mm 4 mps 750 mmHg 26%
    13:00 +42°C° 0 mm 5 mps 749 mmHg 24%
    14:00 +43°C° 0 mm 5 mps 748 mmHg 22%
    15:00 +43°C° 0 mm 5 mps 748 mmHg 21%
    16:00 +45°C° 0 mm 5 mps 748 mmHg 20%
    17:00 +45°C° 0 mm 5 mps 748 mmHg 19%
    18:00 +43°C° 0 mm 5 mps 748 mmHg 20%
    19:00 +42°C° 0 mm 5 mps 749 mmHg 21%
    20:00 +41°C° 0 mm 5 mps 749 mmHg 22%
    21:00 +41°C° 0 mm 5 mps 749 mmHg 23%
    22:00 +40°C° 0 mm 5 mps 749 mmHg 23%
    23:00 +40°C° 0 mm 5 mps 749 mmHg 24%
    Show more